Home   Weather   Hommersåk   Past weeks

Flag for Norway Past Weather in Hommersåk, Norway — Yesterday and Last 2 Weeks

Now
39 °F

Passing clouds.


Feels Like: 39 °F
Forecast: 39 / 49 °F
Wind: 2 mph from Northeast

Location: Stavanger / Sola

Current Time: Apr 29, 2017 at 11:46:41 pm

Latest Report: Apr 29, 2017 at 11:20 pm


Visibility: N/A

Pressure: 30.18 "Hg

Humidity: 87%

Dew Point: 36 °F

Location of HommersåkLocation

Past Weather in Hommersåk — Graph

°F

Hommersåk Temperature Yesterday

Maximum temperature yesterday: 46 °F (at 11:50 am)
Minimum temperature yesterday: 37 °F (at 12:50 am)
Average temperature yesterday: 43 °F

High & Low Weather Summary for the Past Weeks

 TemperatureHumidityPressure
High50 °F (Apr 29, 12:50 pm)100% (Apr 16, 9:20 am)30.60 "Hg (Apr 16, 9:20 am)
Low28 °F (Apr 17, 6:20 am)35% (Apr 29, 3:50 pm)29.50 "Hg (Apr 24, 3:50 am)
Average40 °F75%29.97 "Hg
* Reported Apr 14 9:20 pm — Apr 29 9:20 pm, Hommersåk, Weather by CustomWeather, © 2017

Note: Actual official high and low records may vary slightly from our data, if they occured in-between our weather recording intervals... More about our weather records

Advertising

Hommersåk Weather History for the Previous 24 Hours

Scroll right to see more
 ConditionsComfort  
Time TempWeatherWind HumidityBarometerVisibility
9:20 pm
Sat, Apr 29
43 °FScattered clouds.2 mph76%30.15 "HgN/A
8:50 pm45 °FPassing clouds.5 mph71%30.15 "HgN/A
8:20 pm45 °FPassing clouds.7 mph66%30.15 "HgN/A
7:50 pm46 °FScattered clouds.7 mph62%30.15 "HgN/A
7:20 pm46 °FScattered clouds.8 mph66%30.15 "HgN/A
6:50 pm46 °FScattered clouds.9 mph66%30.15 "HgN/A
6:20 pm46 °FScattered clouds.12 mph66%30.15 "HgN/A
5:50 pm46 °FPartly sunny.9 mph62%30.12 "HgN/A
5:20 pm50 °FScattered clouds.6 mph54%30.12 "HgN/A
4:50 pm50 °FScattered clouds.6 mph40%30.12 "HgN/A
4:20 pm48 °FScattered clouds.9 mph37%30.12 "HgN/A
3:50 pm50 °FScattered clouds.10 mph35%30.12 "HgN/A
3:20 pm50 °FPassing clouds.9 mph37%30.15 "HgN/A
2:20 pm48 °FScattered clouds.10 mph40%30.12 "HgN/A
1:50 pm48 °FScattered clouds.13 mph50%30.12 "HgN/A
1:20 pm48 °FScattered clouds.13 mph50%30.12 "HgN/A
12:50 pm50 °FPartly sunny.12 mph47%30.12 "HgN/A
12:20 pm48 °FPartly sunny.9 mph50%30.12 "HgN/A
11:50 am48 °FScattered clouds.9 mph54%30.12 "HgN/A
11:20 am46 °FPartly sunny.10 mph53%30.12 "HgN/A
10:50 am48 °FScattered clouds.13 mph50%30.09 "HgN/A
10:20 am46 °FBroken clouds.12 mph53%30.09 "HgN/A
9:20 am45 °FBroken clouds.14 mph61%30.09 "HgN/A
8:50 am45 °FBroken clouds.9 mph61%30.07 "HgN/A
8:20 am45 °FBroken clouds.8 mph61%30.07 "HgN/A
7:50 am43 °FPartly sunny.5 mph71%30.07 "HgN/A
7:20 am43 °FPartly sunny.6 mph71%30.04 "HgN/A
6:50 am43 °FBroken clouds.10 mph66%30.04 "HgN/A
6:20 am41 °FBroken clouds.9 mph66%30.04 "HgN/A
5:50 am41 °FBroken clouds.5 mph66%30.01 "HgN/A
4:50 am41 °FPassing clouds.3 mph66%30.01 "HgN/A
3:50 am41 °FPassing clouds.5 mph66%29.98 "HgN/A
2:50 am39 °FPartly cloudy.3 mph70%29.98 "HgN/A
1:50 am37 °FPassing clouds.3 mph75%29.98 "HgN/A
12:50 am37 °FPassing clouds.No wind70%29.95 "HgN/A
11:50 pm
Fri, Apr 28
39 °FPassing clouds.1 mph65%29.95 "HgN/A
11:20 pm41 °FPassing clouds.2 mph61%29.92 "HgN/A
Weather by CustomWeather, © 2017

See weather overviewHow to use our weather pages